Tracking 30685 objects as of 17-Jun-2025
HD Live streaming from Space Station
objects crossing your sky now

STARLINK-31362

Track STARLINK-31362 now!
10-day predictions
STARLINK-31362 is classified as:


NORAD ID: 58935
Int'l Code: 2024-027E
Perigee: 481.7 km
Apogee: 483.1 km
Inclination: 53.2 °
Period: 94.1 minutes
Semi major axis: 6853 km
RCS: Unknown
Launch date: February 10, 2024
Source: United States (US)
Launch site: AIR FORCE WESTERN TEST RANGE (AFWTR)
Your satellite tracking list
Your tracking list is empty




NASA's NSSDC Master Catalog

Two Line Element Set (TLE):
1 58935U 24027E   25167.52905982  .00001470  00000-0  61764-4 0  9996
2 58935  53.1594 106.2201 0001022  94.6162 265.4956 15.30193403 76575
Source of the keplerian elements: AFSPC